User: anonymous   Login
Location: Caltech
(34.1382°N, 118.1253°W)
Time: 06:18:07
(UTC-08:00)
Language:

Cosmos 2219 Rocket - Orbit

View from above orbital plane
View from above orbital plane
View from above satellite
View from above satellite

Ground track
Ground track

The orbit data is extracted from the following two-line orbital elements,

1 22220U 92076B   15023.82709753 -.00000267  00000-0 -11026-3 0  5080
2 22220 071.0013 101.7368 0012172 177.8045 326.8964 14.16351512146821
Epoch (UTC): 23 January 2015 19:51:01
Eccentricity: 0.0012172
inclination: 71.0013°
perigee height: 829 km
apogee height: 846 km
right ascension of ascending node: 101.7368°
argument of perigee: 177.8045°
revolutions per day: 14.16351512
mean anomaly at epoch: 326.8964°
orbit number at epoch: 14682

The dashed part of the orbit path shows where the satellite is in the earth's shadow,  

DLR